TimeEST,TemperatureF,Dew PointF,Humidity,Sea Level PressureIn,VisibilityMPH,Wind Direction,Wind SpeedMPH,Gust SpeedMPH,PrecipitationIn,Events,Conditions,WindDirDegrees,DateUTC
12:15 AM,37.4,28.4,70,30.00,10.0,SW,5.8,-,N/A,,Overcast,220,2013-03-05 05:15:00
12:35 AM,35.6,28.4,75,30.00,10.0,SSW,6.9,-,N/A,,Overcast,210,2013-03-05 05:35:00
12:55 AM,35.6,28.4,75,30.00,10.0,SSW,5.8,-,N/A,,Overcast,210,2013-03-05 05:55:00
1:35 AM,37.4,30.2,75,30.00,10.0,SSW,5.8,-,N/A,,Overcast,210,2013-03-05 06:35:00
1:55 AM,41.0,30.2,65,29.99,10.0,SSW,5.8,-,N/A,,Overcast,210,2013-03-05 06:55:00
2:15 AM,41.0,30.2,65,29.98,10.0,SW,6.9,-,N/A,,Overcast,220,2013-03-05 07:15:00
2:35 AM,39.2,30.2,70,29.97,10.0,SSW,4.6,-,N/A,,Scattered Clouds,210,2013-03-05 07:35:00
3:15 AM,41.0,32.0,70,29.96,10.0,SW,3.5,-,N/A,,Overcast,230,2013-03-05 08:15:00
3:55 AM,41.0,30.2,65,29.95,10.0,Calm,Calm,-,N/A,,Overcast,0,2013-03-05 08:55:00
4:15 AM,41.0,30.2,65,29.95,10.0,SW,10.4,-,N/A,,Overcast,220,2013-03-05 09:15:00
4:35 AM,41.0,32.0,70,29.94,10.0,SSW,8.1,-,N/A,,Overcast,210,2013-03-05 09:35:00
4:55 AM,42.8,32.0,66,29.94,10.0,SSW,4.6,-,N/A,,Overcast,200,2013-03-05 09:55:00
5:15 AM,44.6,32.0,61,29.92,10.0,South,5.8,-,N/A,,Overcast,170,2013-03-05 10:15:00
5:35 AM,42.8,30.2,61,29.94,10.0,SE,5.8,-,N/A,,Overcast,140,2013-03-05 10:35:00
5:55 AM,41.0,28.4,61,29.94,10.0,SE,8.1,-,N/A,,Overcast,140,2013-03-05 10:55:00
6:15 AM,42.8,26.6,53,29.94,10.0,SE,8.1,-,N/A,,Overcast,140,2013-03-05 11:15:00
6:35 AM,42.8,28.4,57,29.93,10.0,SSE,6.9,-,N/A,,Overcast,150,2013-03-05 11:35:00
6:55 AM,42.8,30.2,61,29.94,10.0,SSE,6.9,-,N/A,Rain,Light Rain,160,2013-03-05 11:55:00
7:15 AM,41.0,32.0,70,29.93,10.0,South,6.9,-,N/A,,Overcast,170,2013-03-05 12:15:00
7:35 AM,42.8,32.0,66,29.93,10.0,South,6.9,-,N/A,,Overcast,170,2013-03-05 12:35:00
8:15 AM,41.0,35.6,81,29.94,7.0,SSW,8.1,-,N/A,Rain,Light Rain,200,2013-03-05 13:15:00
8:35 AM,37.4,35.6,93,29.93,5.0,SSW,6.9,-,0.01,Rain,Light Rain,200,2013-03-05 13:35:00
8:55 AM,41.0,39.2,93,29.92,5.0,South,8.1,-,0.02,Rain,Light Rain,190,2013-03-05 13:55:00
9:15 AM,41.0,37.4,87,29.91,7.0,South,8.1,-,N/A,,Overcast,170,2013-03-05 14:15:00
9:35 AM,41.0,39.2,93,29.91,7.0,SSE,6.9,-,0.01,Rain,Light Rain,160,2013-03-05 14:35:00
9:55 AM,41.0,41.0,100,29.90,7.0,SSE,8.1,-,0.01,Rain,Light Rain,150,2013-03-05 14:55:00
10:15 AM,41.0,41.0,100,29.89,7.0,SE,5.8,-,N/A,Rain,Light Rain,130,2013-03-05 15:15:00
10:35 AM,41.0,41.0,100,29.88,7.0,SSE,8.1,-,0.01,Rain,Light Rain,160,2013-03-05 15:35:00
10:55 AM,42.8,42.8,100,29.87,10.0,South,9.2,-,0.01,,Overcast,180,2013-03-05 15:55:00
11:15 AM,42.8,42.8,100,29.86,7.0,South,9.2,-,N/A,Rain,Light Rain,180,2013-03-05 16:15:00
11:35 AM,42.8,42.8,100,29.84,7.0,South,6.9,-,N/A,Rain,Light Rain,180,2013-03-05 16:35:00
11:55 AM,42.8,42.8,100,29.83,7.0,South,8.1,-,N/A,Rain,Light Rain,170,2013-03-05 16:55:00
12:15 PM,42.8,42.8,100,29.81,7.0,SSE,6.9,-,0.01,Rain,Light Rain,150,2013-03-05 17:15:00
12:35 PM,44.6,44.6,100,29.80,7.0,SSE,8.1,-,0.01,,Overcast,160,2013-03-05 17:35:00
12:55 PM,44.6,44.6,100,29.79,7.0,SSE,6.9,-,0.01,,Overcast,160,2013-03-05 17:55:00
1:15 PM,44.6,44.6,100,29.79,5.0,South,5.8,-,N/A,Rain,Light Rain,170,2013-03-05 18:15:00
1:35 PM,42.8,42.8,100,29.79,3.0,South,8.1,-,0.04,Rain,Rain,170,2013-03-05 18:35:00
1:55 PM,42.8,42.8,100,29.78,2.5,South,6.9,-,0.12,Rain,Heavy Rain,180,2013-03-05 18:55:00
2:15 PM,42.8,42.8,100,29.76,4.0,SSE,6.9,-,0.03,Rain,Light Rain,150,2013-03-05 19:15:00
2:35 PM,44.6,44.6,100,29.74,2.5,SSE,12.7,17.3,0.08,Rain,Rain,160,2013-03-05 19:35:00
2:55 PM,44.6,44.6,100,29.70,3.0,SE,6.9,-,0.11,Rain,Light Rain,140,2013-03-05 19:55:00
3:15 PM,44.6,44.6,100,29.68,10.0,SSE,10.4,-,0.01,,Overcast,150,2013-03-05 20:15:00
3:35 PM,42.8,42.8,100,29.67,0.2,SSE,10.4,16.1,0.01,Fog,Fog,150,2013-03-05 20:35:00
3:55 PM,42.8,42.8,100,29.66,0.2,SSE,10.4,16.1,0.01,Fog,Fog,160,2013-03-05 20:55:00
4:15 PM,42.8,42.8,100,29.63,0.2,SE,5.8,-,N/A,Rain,Light Rain,140,2013-03-05 21:15:00
4:35 PM,42.8,42.8,100,29.62,0.2,SSE,5.8,-,0.02,Rain,Light Rain,160,2013-03-05 21:35:00
4:55 PM,42.8,42.8,100,29.61,0.5,South,4.6,-,0.03,Rain,Rain,170,2013-03-05 21:55:00
5:15 PM,42.8,42.8,100,29.61,2.0,Calm,Calm,-,0.03,Rain,Rain,0,2013-03-05 22:15:00
5:35 PM,42.8,42.8,100,29.62,2.0,South,3.5,-,0.08,Rain,Heavy Rain,180,2013-03-05 22:35:00
5:55 PM,44.6,44.6,100,29.59,3.0,SE,3.5,-,0.11,Rain,Light Rain,140,2013-03-05 22:55:00
6:15 PM,44.6,44.6,100,29.61,3.0,South,6.9,-,0.01,Rain,Light Rain,190,2013-03-05 23:15:00
6:35 PM,44.6,44.6,100,29.61,3.0,SSW,6.9,-,0.02,Rain,Light Rain,200,2013-03-05 23:35:00
6:55 PM,44.6,44.6,100,29.59,7.0,SSW,9.2,17.3,0.02,Rain,Light Rain,200,2013-03-05 23:55:00
7:15 PM,44.6,44.6,100,29.56,10.0,SSE,8.1,-,N/A,,Mostly Cloudy,160,2013-03-06 00:15:00
7:35 PM,44.6,44.6,100,29.58,10.0,SSW,10.4,-,N/A,,Overcast,200,2013-03-06 00:35:00
7:55 PM,44.6,44.6,100,29.58,4.0,SSW,9.2,-,0.02,Rain,Rain,210,2013-03-06 00:55:00
8:15 PM,44.6,44.6,100,29.58,7.0,WSW,16.1,26.5,0.01,Rain,Light Rain,240,2013-03-06 01:15:00
8:35 PM,42.8,42.8,100,29.59,5.0,West,19.6,32.2,0.01,Rain,Light Rain,260,2013-03-06 01:35:00
8:55 PM,41.0,39.2,93,29.61,10.0,West,20.7,26.5,0.01,,Overcast,280,2013-03-06 01:55:00
9:35 PM,33.8,33.8,100,29.65,4.0,West,26.5,36.8,N/A,Snow,Light Snow,260,2013-03-06 02:35:00
9:55 PM,32.0,32.0,100,29.65,10.0,West,31.1,39.1,N/A,,Overcast,270,2013-03-06 02:55:00
10:15 PM,32.0,32.0,100,29.67,7.0,West,18.4,34.5,N/A,,Overcast,260,2013-03-06 03:15:00
10:35 PM,32.0,32.0,100,29.68,7.0,West,23.0,34.5,N/A,,Overcast,270,2013-03-06 03:35:00
10:55 PM,32.0,32.0,100,29.69,5.0,West,17.3,26.5,N/A,,Overcast,260,2013-03-06 03:55:00
11:15 PM,32.0,32.0,100,29.69,2.5,West,12.7,18.4,N/A,Snow,Light Snow,270,2013-03-06 04:15:00
11:35 PM,30.2,30.2,100,29.69,2.0,West,18.4,26.5,N/A,Snow,Light Snow,270,2013-03-06 04:35:00
11:55 PM,30.2,30.2,100,29.69,7.0,West,10.4,23.0,N/A,Snow,Light Snow,270,2013-03-06 04:55:00